Погода Закаталы

Погода Закаталы : погода сейчас, прогноз погоды и архив. Всё, что Вы хотите узнать о погоде Закаталы!

Поиск расширенной информации на нашем сайте:

Другие новости

Новости СМИ2

Главная страница сайта

Новости сайта

03.07.2017

Напоминаем, что на нашем специализированном сайте Метеоцентр.Азия вы можете получить высокодетализированные автоматические прогнозы погоды по пунктам России, СНГ и мира в авиационном формате (включающие направление и скорость ветра, видимость, явления погоды, количество и форму облачности, нижнюю и верхнюю границу облачности).


Погода Закаталы - сегодня

Время (UTC), дата Ветер
(°,м/с) 
Видим.   Явления Облачность Т
(°С)
Тd
(°С)
f(%) Тe
(°С)
Pmin
(гПа)
dP
(гПа)
Po
(мм)
O2
(г/м3)
Тmin Tmax R s Состояние
почвы
15 20.09.17 200 (Ю) 20000 м    1/0 средняя 
[Ac und]
+26.8 +12.5 41 +32  1014.5  -0.2  720  262           
18 20.09.17 070 (В) 20000 м    ясно 
+23.8 +12.1 48 +29  1016.8  1.6  721  265    +31.4       
21 20.09.17 050 (СВ) 20000 м    ясно 
+21.4 +11.8 54 +26  1017.3  721  267           
00 21.09.17 020 (С) 20000 м    ясно 
+20.9 +11.5 55 +25    -0.4  721  268           
03 21.09.17 050 (СВ) 20000 м    1/0 средняя 
[Ac und]
+19.7 +12.2 62 +26  1017  -0.2  721  268           
09 21.09.17 200 (Ю) 20000 м    1/1 1500 м 
[Cu med, cong]
+29.4 +14.9 41 +39  1014.1  -1.1  720  259           
12 21.09.17 200 (Ю) 20000 м    1/1 1500 м 
[Cu med, cong]
+31.1 +13.7 35 +39  1012.3  -1.4  719  257           
15 21.09.17 140 (ЮВ) 20000 м    4/4 1000 м средняя 
[Sc|Ac und]
+27.3 +12.8 41 +33  1013.3  0.2  719  261           
00 22.09.17 020 (С) 20000 м    ясно 
+21.3 +11.7 54 +26  1014.4  -0.9  719  267           
03 22.09.17 020 (С) 20000 м    3/0 
+19.2 +11.5 61 +24  1015.3  -0.5  719  269           
09 22.09.17 200 (Ю) 20000 м    1/0 средняя 
[Ac und]
+29.1 +12.3 35 +34  1011.9  -1.3  719  259           
12 22.09.17 200 (Ю) 20000 м    1/0 средняя 
[Ac und]
+30 +11.7 32 +34  1010.2  -1.5  717  258           
15 22.09.17 160 (Ю) 20000 м    1/0 средняя 
[Ac und]
+26.5 +14.5 48 +36  1011.4  717  261           
18 22.09.17 110 (В) 20000 м    3/0 средняя 
[Ac und]
+23.7 +13 51 +30  1013.6  2.1  719  264    +30.5       
21 22.09.17 110 (В) 20000 м    3/0 средняя 
[Ac und]
+21.8 +12.4 55 +27  1014.4  0.5  719  266           
00 23.09.17 020 (С) 20000 м    1/0 средняя 
[Ac und]
+21.4 +10.9 51 +25  1014.9  0.3  720  267           
03 23.09.17 050 (СВ) 20000 м    ясно 
+19.1 +10.9 59 +23  1016.7  1.2  720  269           
06 23.09.17 160 (Ю) 20000 м    5/0 средняя 
[Ac und]
+24.2 +16.4 62 +37  1016.6  721  263  +18.6         
09 23.09.17 230 (ЮЗ) 20000 м    3/3 1500 м средняя 
[Cu med, cong|Ac und]
+28.5 +19.5 58 +47  1015.8  721  258           
12 23.09.17 070 (В) 20000 м    3/3 1500 м средняя 
[Cu med, cong|Ac und]
+28.7 +14.8 43 +38  1015.4  -0.4  721  260           
15 23.09.17 160 (Ю) 10 км    9/9 1000 м средняя 
[Sc|Ac und]
+26.4 +16.8 56 +40  1015.8  721  261           
18 23.09.17 050 (СВ) 4000 м    6/0 средняя 
[Ac und]
+24 +15.2 58 +34  1017.6  1.3  722  264    +29.7       
21 23.09.17 110 (В) 20000 м    ясно 
+22.9 +14.4 59 +32  1018.6  0.7  722  266           
00 24.09.17 020 (С) 20000 м    ясно 
+21 +13.1 61 +27  1019  722  268           
03 24.09.17 050 (СВ) 20000 м    3/0 средняя 
[Ac und]
+19.1 +12.5 66 +26  1020.2  0.7  723  270           
Время (UTC), дата Ветер
(°,м/с) 
Видим.   Явления Облачность Т
(°С)
Тd
(°С)
f(%) Тe
(°С)
Pmin
(гПа)
dP
(гПа)
Po
(мм)
O2
(г/м3)
Тmin Tmax R s Состояние
почвы

Для получения пояснительной информации подведите курсор к названию столбца.

ПОГОДА Закаталы - архив

Всё, что Вы хотите узнать о погоде Закаталы - удобно и подробно!

Выберите нужную дату (начиная с 1 января 2015* года) и нажмите кнопку "Найти".
Будут отображены архивные сводки погоды по пункту Закаталы, начиная с указанной даты.


Отображать данные в формате CSV (для использования в таблицах Excel)


Внимание! Наш архив погоды предназначен исключительно для личного некоммерческого использования в познавательных целях. Если Вам необходимы официальные справки о состоянии погоды (для производственных, юридических, коммерческих и т.п. целей), обращайтесь в органы Росгидромета.

*Примечание: данная дата относится к архиву по метеостанциям СССР (Россия, СНГ, Балтия).
Архив по метеостанциям Зарубежной Европы и Азии (кроме Китая) хранится 10 дней, по другим регионам земного шара (Китай, Африка, Америка, Австралия, Океания) - 1 день.

Закаталы - район местоположения метеостанции


Название, широта, долгота, высота метеостанции:
Закаталы 41.6°ш. 46.6°д. 490 м над ур. моря [Азербайджан]

Дополнительная информация

В oтличие oт бoльшинства пoгoдных сайтoв мы публикуем пoдрoбную метеoинфoрмацию в детальнoм прoфессиoнальнoм фoрмате.

Характеристики температуры и влажнoсти вoздуха измеряются на высoте 2 м в тени вдали oт зданий и деревьев.
Скoрoсть ветра измеряется на высoте 10 м (на урoвне рoста челoвека скoрoсть ветра ниже в 1.5-2 раза). Если метеoстанция нахoдится в гoрoде или в лесу, тo скoрoсть ветра занижена на 2-4 м/с пo сравнению с oткрытым местoм. Скoрoсть ветра над акватoриями крупных рек и oзёр, а также на вершинах хoлмoв на 2-5 м/с выше, чем в oбычных услoвиях.
Атмoсфернoе давление в разных тoчках местнoсти мoжет значительнo oтличаться oт давления на метеoстанции, в зависимoсти oт услoвий рельефа (при пoдъёме на 10 м давление пoнижается примернo на 1 мм рт.ст.).